• In Latvia
  • List of Countries
  • For 7 days
  • Water Temperature
  • Satellite Maps
  • Weather Map
  • Weather Widgets
  • user-avatar
    Login

    Hourly Weather Kaprun

    Today, 23 August, Wednesday

    Time Temperature Precipitation Wind Pressure Humidity
    00:00 +5°C° 0 mm 1 mps 599 mmHg 96%
    01:00 +5°C° 0 mm 1 mps 598 mmHg 95%
    02:00 +4°C° 0 mm 1 mps 598 mmHg 94%
    03:00 +4°C° 0 mm 1 mps 598 mmHg 93%
    04:00 +4°C° 0 mm 1 mps 598 mmHg 92%
    05:00 +5°C° 0 mm 1 mps 599 mmHg 87%
    06:00 +7°C° 0 mm 1 mps 599 mmHg 82%
    07:00 +8°C° 0 mm 1 mps 600 mmHg 76%
    08:00 +11°C° 0 mm 1 mps 601 mmHg 67%
    09:00 +13°C° 0 mm 1 mps 602 mmHg 57%
    10:00 +16°C° 0 mm 1 mps 603 mmHg 48%
    11:00 +16°C° 0.1 mm 1 mps 603 mmHg 48%
    12:00 +16°C° 0.1 mm 2 mps 603 mmHg 49%
    13:00 +16°C° 0.1 mm 2 mps 603 mmHg 50%
    14:00 +16°C° 0.5 mm 2 mps 603 mmHg 54%
    15:00 +16°C° 0.5 mm 2 mps 603 mmHg 59%
    16:00 +16°C° 0.5 mm 2 mps 603 mmHg 63%
    17:00 +14°C° 0.6 mm 2 mps 602 mmHg 71%
    18:00 +12°C° 0.6 mm 1 mps 601 mmHg 79%
    19:00 +10°C° 0.6 mm 1 mps 600 mmHg 88%
    20:00 +9°C° 0.1 mm 1 mps 600 mmHg 88%
    21:00 +8°C° 0.1 mm 1 mps 600 mmHg 88%
    22:00 +7°C° 0.1 mm 1 mps 600 mmHg 89%
    23:00 +7°C° 0 mm 1 mps 600 mmHg 87%

    Tomorrow, 24 August, Thursday

    Time Temperature Precipitation Wind Pressure Humidity
    00:00 +7°C° 0 mm 1 mps 600 mmHg 85%
    01:00 +7°C° 0 mm 1 mps 600 mmHg 83%
    02:00 +6°C° 0 mm 2 mps 600 mmHg 81%
    03:00 +5°C° 0 mm 2 mps 600 mmHg 79%
    04:00 +5°C° 0 mm 2 mps 600 mmHg 77%
    05:00 +8°C° 0 mm 1 mps 600 mmHg 73%
    06:00 +9°C° 0 mm 1 mps 601 mmHg 70%
    07:00 +11°C° 0 mm 1 mps 602 mmHg 67%
    08:00 +13°C° 0 mm 1 mps 603 mmHg 59%
    09:00 +16°C° 0 mm 1 mps 604 mmHg 51%
    10:00 +18°C° 0 mm 0 mps 606 mmHg 42%
    11:00 +21°C° 0 mm 1 mps 606 mmHg 41%
    12:00 +21°C° 0 mm 1 mps 606 mmHg 39%
    13:00 +22°C° 0 mm 1 mps 606 mmHg 38%
    14:00 +21°C° 0.1 mm 1 mps 605 mmHg 43%
    15:00 +20°C° 0.1 mm 1 mps 605 mmHg 48%
    16:00 +19°C° 0.1 mm 1 mps 604 mmHg 53%
    17:00 +16°C° 1.3 mm 1 mps 604 mmHg 64%
    18:00 +14°C° 1.3 mm 1 mps 603 mmHg 75%
    19:00 +11°C° 1.3 mm 0 mps 602 mmHg 87%
    20:00 +11°C° 0.6 mm 1 mps 602 mmHg 87%
    21:00 +11°C° 0.6 mm 1 mps 602 mmHg 87%
    22:00 +10°C° 0.6 mm 1 mps 602 mmHg 87%
    23:00 +9°C° 0.1 mm 1 mps 602 mmHg 87%

    Day after tomorrow, 25 August, Friday

    Time Temperature Precipitation Wind Pressure Humidity
    00:00 +9°C° 0.1 mm 1 mps 602 mmHg 86%
    01:00 +8°C° 0.1 mm 1 mps 601 mmHg 86%
    02:00 +8°C° 0.1 mm 1 mps 601 mmHg 85%
    03:00 +8°C° 0.1 mm 1 mps 601 mmHg 84%
    04:00 +8°C° 0.1 mm 1 mps 601 mmHg 83%
    05:00 +9°C° 0 mm 1 mps 601 mmHg 80%
    06:00 +10°C° 0 mm 1 mps 602 mmHg 76%
    07:00 +11°C° 0 mm 1 mps 603 mmHg 73%
    08:00 +14°C° 0 mm 1 mps 604 mmHg 63%
    09:00 +18°C° 0 mm 1 mps 605 mmHg 53%
    10:00 +19°C° 0 mm 0 mps 606 mmHg 43%
    11:00 +21°C° 0 mm 1 mps 606 mmHg 42%
    12:00 +22°C° 0 mm 1 mps 606 mmHg 40%
    13:00 +22°C° 0 mm 1 mps 606 mmHg 38%
    14:00 +22°C° 0.1 mm 1 mps 606 mmHg 44%
    15:00 +21°C° 0.1 mm 1 mps 605 mmHg 49%
    16:00 +20°C° 0.1 mm 1 mps 605 mmHg 54%
    17:00 +18°C° 0.6 mm 1 mps 604 mmHg 65%
    18:00 +15°C° 0.6 mm 1 mps 603 mmHg 76%
    19:00 +11°C° 0.6 mm 0 mps 602 mmHg 86%
    20:00 +12°C° 0.2 mm 1 mps 602 mmHg 86%
    21:00 +12°C° 0.2 mm 1 mps 602 mmHg 86%
    22:00 +11°C° 0.2 mm 1 mps 602 mmHg 85%
    23:00 +11°C° 0 mm 1 mps 602 mmHg 84%

    26 August, Saturday

    Time Temperature Precipitation Wind Pressure Humidity
    00:00 +11°C° 0 mm 1 mps 602 mmHg 83%
    01:00 +10°C° 0 mm 1 mps 602 mmHg 82%
    02:00 +10°C° 0 mm 1 mps 602 mmHg 80%
    03:00 +10°C° 0 mm 1 mps 601 mmHg 79%
    04:00 +10°C° 0 mm 1 mps 601 mmHg 77%
    05:00 +11°C° 0 mm 1 mps 602 mmHg 75%
    06:00 +12°C° 0 mm 1 mps 602 mmHg 72%
    07:00 +13°C° 0 mm 1 mps 603 mmHg 70%
    08:00 +16°C° 0 mm 1 mps 604 mmHg 60%
    09:00 +19°C° 0 mm 1 mps 605 mmHg 51%
    10:00 +20°C° 0 mm 0 mps 606 mmHg 42%
    11:00 +23°C° 0 mm 1 mps 606 mmHg 41%
    12:00 +23°C° 0 mm 1 mps 606 mmHg 40%
    13:00 +24°C° 0 mm 2 mps 606 mmHg 39%
    14:00 +23°C° 0.4 mm 2 mps 605 mmHg 44%
    15:00 +21°C° 0.4 mm 2 mps 605 mmHg 49%
    16:00 +20°C° 0.4 mm 2 mps 604 mmHg 54%
    17:00 +19°C° 0.5 mm 1 mps 603 mmHg 63%
    18:00 +16°C° 0.5 mm 1 mps 603 mmHg 73%
    19:00 +14°C° 0.5 mm 1 mps 602 mmHg 82%
    20:00 +13°C° 0.3 mm 1 mps 602 mmHg 83%
    21:00 +13°C° 0.3 mm 1 mps 602 mmHg 83%
    22:00 +12°C° 0.3 mm 1 mps 602 mmHg 84%
    23:00 +11°C° 0 mm 1 mps 601 mmHg 83%

    27 August, Sunday

    Time Temperature Precipitation Wind Pressure Humidity
    00:00 +11°C° 0 mm 1 mps 601 mmHg 82%
    01:00 +10°C° 0 mm 1 mps 600 mmHg 81%
    02:00 +10°C° 0 mm 1 mps 600 mmHg 80%
    03:00 +9°C° 0 mm 1 mps 600 mmHg 78%
    04:00 +9°C° 0 mm 1 mps 599 mmHg 77%
    05:00 +10°C° 0.1 mm 1 mps 600 mmHg 75%
    06:00 +11°C° 0.1 mm 1 mps 601 mmHg 73%
    07:00 +12°C° 0.1 mm 1 mps 601 mmHg 72%
    08:00 +15°C° 0.1 mm 1 mps 602 mmHg 64%
    09:00 +18°C° 0.1 mm 1 mps 603 mmHg 57%
    10:00 +20°C° 0.1 mm 1 mps 604 mmHg 50%
    11:00 +20°C° 0.7 mm 1 mps 604 mmHg 54%
    12:00 +20°C° 0.7 mm 1 mps 604 mmHg 57%
    13:00 +20°C° 0.7 mm 1 mps 603 mmHg 60%
    14:00 +19°C° 0.9 mm 1 mps 603 mmHg 65%
    15:00 +18°C° 0.9 mm 1 mps 602 mmHg 70%
    16:00 +16°C° 0.9 mm 1 mps 602 mmHg 74%
    17:00 +15°C° 0.8 mm 1 mps 601 mmHg 80%
    18:00 +13°C° 0.8 mm 1 mps 601 mmHg 85%
    19:00 +12°C° 0.8 mm 1 mps 600 mmHg 90%
    20:00 +11°C° 0.1 mm 1 mps 600 mmHg 90%
    21:00 +10°C° 0.1 mm 1 mps 600 mmHg 90%
    22:00 +10°C° 0.1 mm 1 mps 600 mmHg 90%
    23:00 +10°C° 0 mm 1 mps 600 mmHg 88%

    28 August, Monday

    Time Temperature Precipitation Wind Pressure Humidity
    00:00 +10°C° 0 mm 1 mps 600 mmHg 87%
    01:00 +10°C° 0 mm 1 mps 600 mmHg 85%
    02:00 +10°C° 0 mm 1 mps 600 mmHg 84%
    03:00 +10°C° 0 mm 1 mps 600 mmHg 82%
    04:00 +10°C° 0 mm 1 mps 599 mmHg 80%
    05:00 +9°C° 0.2 mm 2 mps 600 mmHg 79%
    06:00 +10°C° 0.2 mm 2 mps 600 mmHg 78%
    07:00 +12°C° 0.2 mm 2 mps 601 mmHg 76%
    08:00 +14°C° 0.1 mm 2 mps 602 mmHg 68%
    09:00 +16°C° 0.1 mm 2 mps 603 mmHg 60%
    10:00 +18°C° 0.1 mm 2 mps 604 mmHg 52%
    11:00 +18°C° 0.3 mm 2 mps 604 mmHg 52%
    12:00 +19°C° 0.3 mm 2 mps 604 mmHg 52%
    13:00 +19°C° 0.3 mm 2 mps 604 mmHg 52%
    14:00 +18°C° 0.5 mm 2 mps 604 mmHg 56%
    15:00 +18°C° 0.5 mm 2 mps 603 mmHg 61%
    16:00 +17°C° 0.5 mm 2 mps 603 mmHg 65%
    17:00 +15°C° 0.3 mm 2 mps 602 mmHg 74%
    18:00 +13°C° 0.3 mm 2 mps 602 mmHg 83%
    19:00 +11°C° 0.3 mm 1 mps 601 mmHg 92%
    20:00 +11°C° 0 mm 1 mps 601 mmHg 93%
    21:00 +10°C° 0 mm 1 mps 601 mmHg 94%
    22:00 +8°C° 0 mm 2 mps 601 mmHg 95%
    23:00 +8°C° 0 mm 2 mps 601 mmHg 93%
    Show more